AJB511 SCEL-SAZS

Flight info

Callsign AJB511
Flight time 2h 10m
Altitude 21000
Route LINER6C LINER UQ805 IRUDI DCT TONAR TONAR1Q
Aircraft AT76/M-SDFGIRY/S

Departure

Time 2026-05-06 20:58
Airport Comodoro Arturo Merino Benítez International Airport (SCEL)

Arrival

Time 2026-05-06 23:08
Airport Teniente Luis Candelaria International Airport (SAZS)
Time Latitude Longitude Altitude Speed Heading
2026-05-06 20:10 -33.40048 -70.79754 1561 ft 0 kts 357°
2026-05-06 20:30 -33.40069 -70.79798 1561 ft 0 kts 357°
2026-05-06 20:31 -33.40040 -70.79753 1561 ft 0 kts 357°
2026-05-06 20:31 -33.40051 -70.79753 1561 ft 0 kts 357°
2026-05-06 20:42 -33.40054 -70.79752 1561 ft 2 kts 356°
2026-05-06 20:42 -33.40068 -70.79751 1561 ft 2 kts 356°
2026-05-06 20:42 -33.40082 -70.79750 1561 ft 2 kts 356°
2026-05-06 20:43 -33.40095 -70.79749 1561 ft 2 kts 358°
2026-05-06 20:43 -33.40107 -70.79749 1561 ft 1 kts 347°
2026-05-06 20:43 -33.40112 -70.79747 1561 ft 1 kts 307°
2026-05-06 20:43 -33.40115 -70.79742 1561 ft 1 kts 282°
2026-05-06 20:44 -33.40116 -70.79736 1561 ft 1 kts 274°
2026-05-06 20:44 -33.40117 -70.79729 1561 ft 1 kts 270°
2026-05-06 20:44 -33.40117 -70.79726 1561 ft 2 kts 269°
2026-05-06 20:44 -33.40117 -70.79749 1561 ft 0 kts 269°
2026-05-06 20:47 -33.40117 -70.79778 1561 ft 7 kts 268°
2026-05-06 20:48 -33.40137 -70.79828 1561 ft 6 kts 205°
2026-05-06 20:48 -33.40162 -70.79869 1561 ft 7 kts 258°
2026-05-06 20:48 -33.40126 -70.79900 1562 ft 9 kts 356°
2026-05-06 20:48 -33.40050 -70.79906 1562 ft 13 kts 356°
2026-05-06 20:49 -33.39957 -70.79912 1562 ft 14 kts 356°
2026-05-06 20:49 -33.39857 -70.79921 1561 ft 15 kts 355°
2026-05-06 20:49 -33.39753 -70.79930 1561 ft 15 kts 357°
2026-05-06 20:49 -33.39641 -70.79936 1561 ft 16 kts 358°
2026-05-06 20:50 -33.39524 -70.79941 1561 ft 17 kts 357°
2026-05-06 20:50 -33.39403 -70.79948 1561 ft 17 kts 358°
2026-05-06 20:50 -33.39335 -70.79987 1562 ft 10 kts 297°
2026-05-06 20:50 -33.39276 -70.80053 1563 ft 14 kts 337°
2026-05-06 20:51 -33.39163 -70.80065 1563 ft 27 kts 359°
2026-05-06 20:51 -33.39005 -70.80073 1563 ft 22 kts 357°
2026-05-06 20:51 -33.38857 -70.80081 1563 ft 21 kts 357°
2026-05-06 20:51 -33.38717 -70.80089 1563 ft 19 kts 358°
2026-05-06 20:52 -33.38584 -70.80095 1563 ft 19 kts 358°
2026-05-06 20:52 -33.38450 -70.80102 1563 ft 19 kts 355°
2026-05-06 20:52 -33.38317 -70.80111 1562 ft 19 kts 358°
2026-05-06 20:52 -33.38185 -70.80116 1562 ft 19 kts 358°
2026-05-06 20:53 -33.38054 -70.80124 1562 ft 19 kts 358°
2026-05-06 20:53 -33.37926 -70.80129 1562 ft 18 kts 355°
2026-05-06 20:53 -33.37800 -70.80138 1562 ft 18 kts 358°
2026-05-06 20:53 -33.37674 -70.80144 1563 ft 18 kts 357°
2026-05-06 20:54 -33.37531 -70.80152 1563 ft 21 kts 357°
2026-05-06 20:54 -33.37389 -70.80159 1563 ft 20 kts 358°
2026-05-06 20:54 -33.37253 -70.80166 1563 ft 17 kts 357°
2026-05-06 20:54 -33.37145 -70.80184 1563 ft 16 kts 331°
2026-05-06 20:55 -33.37106 -70.80248 1566 ft 0 kts 280°
2026-05-06 20:55 -33.37105 -70.80248 1566 ft 1 kts 280°
2026-05-06 20:55 -33.37109 -70.80310 1569 ft 8 kts 254°
2026-05-06 20:56 -33.37139 -70.80363 1570 ft 8 kts 216°
2026-05-06 20:56 -33.37187 -70.80375 1570 ft 6 kts 178°
2026-05-06 20:56 -33.37261 -70.80370 1569 ft 26 kts 178°
2026-05-06 20:56 -33.37577 -70.80356 1570 ft 71 kts 178°
2026-05-06 20:57 -33.38245 -70.80316 1570 ft 119 kts 177°
2026-05-06 20:57 -33.39158 -70.80270 1693 ft 142 kts 175°
2026-05-06 20:57 -33.40256 -70.80198 1739 ft 172 kts 175°
2026-05-06 20:57 -33.41472 -70.80125 2144 ft 173 kts 176°
2026-05-06 20:58 -33.42631 -70.80082 2772 ft 166 kts 181°
2026-05-06 20:58 -33.43769 -70.80072 3374 ft 163 kts 182°
2026-05-06 20:58 -33.44922 -70.80055 3900 ft 162 kts 182°
2026-05-06 20:58 -33.46051 -70.80025 4417 ft 163 kts 182°
2026-05-06 20:59 -33.47193 -70.79956 4726 ft 171 kts 181°
2026-05-06 20:59 -33.48436 -70.79902 4780 ft 189 kts 181°
2026-05-06 20:59 -33.49763 -70.79818 5054 ft 192 kts 180°
2026-05-06 20:59 -33.51095 -70.79715 5358 ft 192 kts 180°
2026-05-06 21:00 -33.52432 -70.79603 5651 ft 193 kts 180°
2026-05-06 21:00 -33.53777 -70.79484 5949 ft 194 kts 180°
2026-05-06 21:00 -33.55126 -70.79344 6237 ft 195 kts 179°
2026-05-06 21:00 -33.56486 -70.79197 6516 ft 196 kts 179°
2026-05-06 21:01 -33.57849 -70.79052 6766 ft 197 kts 179°
2026-05-06 21:01 -33.59212 -70.78899 7138 ft 197 kts 179°
2026-05-06 21:01 -33.60582 -70.78736 7467 ft 198 kts 179°
2026-05-06 21:01 -33.61959 -70.78575 7793 ft 199 kts 179°
2026-05-06 21:02 -33.63342 -70.78418 8114 ft 200 kts 180°
2026-05-06 21:02 -33.64731 -70.78266 8443 ft 201 kts 180°
2026-05-06 21:02 -33.66129 -70.78116 8764 ft 202 kts 180°
2026-05-06 21:02 -33.67530 -70.77981 9081 ft 203 kts 180°
2026-05-06 21:03 -33.68937 -70.77833 9389 ft 203 kts 180°
2026-05-06 21:03 -33.70349 -70.77674 9703 ft 204 kts 180°
2026-05-06 21:03 -33.71769 -70.77509 9999 ft 205 kts 180°
2026-05-06 21:03 -33.73191 -70.77347 10276 ft 206 kts 181°
2026-05-06 21:04 -33.74618 -70.77188 10566 ft 206 kts 181°
2026-05-06 21:04 -33.76046 -70.77033 10842 ft 206 kts 181°
2026-05-06 21:04 -33.77474 -70.76881 11117 ft 206 kts 181°
2026-05-06 21:04 -33.78908 -70.76727 11379 ft 207 kts 181°
2026-05-06 21:05 -33.80343 -70.76572 11641 ft 208 kts 181°
2026-05-06 21:05 -33.81784 -70.76415 11897 ft 208 kts 181°
2026-05-06 21:05 -33.83229 -70.76256 12164 ft 208 kts 181°
2026-05-06 21:05 -33.84676 -70.76096 12432 ft 209 kts 182°
2026-05-06 21:06 -33.86124 -70.75937 12695 ft 210 kts 182°
2026-05-06 21:06 -33.87581 -70.75777 12953 ft 210 kts 182°
2026-05-06 21:06 -33.89040 -70.75619 13208 ft 211 kts 182°
2026-05-06 21:06 -33.90506 -70.75460 13471 ft 211 kts 182°
2026-05-06 21:07 -33.91973 -70.75301 13726 ft 212 kts 182°
2026-05-06 21:07 -33.93428 -70.75263 13975 ft 207 kts 193°
2026-05-06 21:07 -33.94855 -70.75484 14154 ft 205 kts 197°
2026-05-06 21:07 -33.96261 -70.75779 14381 ft 206 kts 198°
2026-05-06 21:08 -33.97675 -70.76076 14588 ft 207 kts 197°
2026-05-06 21:08 -33.99095 -70.76348 14784 ft 207 kts 196°
2026-05-06 21:08 -34.00527 -70.76599 14945 ft 208 kts 196°
2026-05-06 21:08 -34.01960 -70.76842 15135 ft 208 kts 196°
2026-05-06 21:09 -34.03398 -70.77086 15329 ft 209 kts 196°
2026-05-06 21:09 -34.04841 -70.77329 15526 ft 210 kts 196°
2026-05-06 21:09 -34.06288 -70.77573 15713 ft 210 kts 196°
2026-05-06 21:09 -34.07746 -70.77820 15847 ft 214 kts 196°
2026-05-06 21:10 -34.09245 -70.78073 15898 ft 221 kts 196°
2026-05-06 21:10 -34.10793 -70.78334 15925 ft 228 kts 196°
2026-05-06 21:10 -34.12385 -70.78604 15944 ft 234 kts 195°
2026-05-06 21:10 -34.13459 -70.78786 15946 ft 238 kts 195°
2026-05-06 21:11 -34.15658 -70.79156 15948 ft 244 kts 195°
2026-05-06 21:11 -34.17373 -70.79445 15951 ft 247 kts 195°
2026-05-06 21:11 -34.18507 -70.79636 15950 ft 249 kts 195°
2026-05-06 21:11 -34.20231 -70.79927 15950 ft 252 kts 195°
2026-05-06 21:12 -34.21974 -70.80223 15952 ft 254 kts 195°
2026-05-06 21:12 -34.23730 -70.80520 15950 ft 256 kts 195°
2026-05-06 21:12 -34.26071 -70.80916 15948 ft 257 kts 195°
2026-05-06 21:12 -34.27844 -70.81217 15945 ft 258 kts 195°
2026-05-06 21:13 -34.29627 -70.81520 15946 ft 259 kts 195°
2026-05-06 21:13 -34.30828 -70.81722 15951 ft 259 kts 195°
2026-05-06 21:13 -34.32619 -70.82027 15950 ft 260 kts 195°
2026-05-06 21:13 -34.34408 -70.82330 15950 ft 260 kts 195°
2026-05-06 21:14 -34.36202 -70.82635 15948 ft 260 kts 195°
2026-05-06 21:14 -34.37998 -70.82941 15948 ft 261 kts 195°
2026-05-06 21:14 -34.39800 -70.83247 15951 ft 261 kts 195°
2026-05-06 21:14 -34.41598 -70.83553 15952 ft 262 kts 195°
2026-05-06 21:15 -34.43403 -70.83860 15953 ft 262 kts 195°
2026-05-06 21:15 -34.45209 -70.84166 15947 ft 262 kts 195°
2026-05-06 21:15 -34.47011 -70.84472 15949 ft 262 kts 195°
2026-05-06 21:15 -34.48793 -70.84772 16191 ft 251 kts 195°
2026-05-06 21:16 -34.50478 -70.85030 16637 ft 238 kts 195°
2026-05-06 21:16 -34.52078 -70.85261 17078 ft 226 kts 196°
2026-05-06 21:16 -34.53590 -70.85501 17421 ft 220 kts 198°
2026-05-06 21:16 -34.55102 -70.85765 17620 ft 219 kts 198°
2026-05-06 21:17 -34.56610 -70.86031 17830 ft 220 kts 198°
2026-05-06 21:17 -34.58127 -70.86293 18010 ft 220 kts 198°
2026-05-06 21:17 -34.59647 -70.86554 18189 ft 221 kts 198°
2026-05-06 21:17 -34.61170 -70.86815 18357 ft 222 kts 198°
2026-05-06 21:18 -34.62697 -70.87075 18547 ft 221 kts 198°
2026-05-06 21:18 -34.64227 -70.87339 18691 ft 222 kts 198°
2026-05-06 21:18 -34.65760 -70.87602 18854 ft 223 kts 198°
2026-05-06 21:18 -34.67297 -70.87865 19014 ft 223 kts 198°
2026-05-06 21:19 -34.68837 -70.88131 19139 ft 224 kts 198°
2026-05-06 21:19 -34.70387 -70.88397 19257 ft 225 kts 198°
2026-05-06 21:19 -34.71934 -70.88660 19421 ft 225 kts 199°
2026-05-06 21:19 -34.73488 -70.88927 19518 ft 226 kts 198°
2026-05-06 21:20 -34.75039 -70.89187 19674 ft 225 kts 198°
2026-05-06 21:20 -34.76597 -70.89454 19833 ft 226 kts 199°
2026-05-06 21:20 -34.78152 -70.89721 19980 ft 226 kts 199°
2026-05-06 21:20 -34.79710 -70.89989 20126 ft 227 kts 199°
2026-05-06 21:21 -34.81275 -70.90255 20273 ft 227 kts 199°
2026-05-06 21:21 -34.82841 -70.90524 20411 ft 227 kts 199°
2026-05-06 21:21 -34.84407 -70.90794 20536 ft 228 kts 199°
2026-05-06 21:21 -34.85975 -70.91063 20669 ft 228 kts 199°
2026-05-06 21:22 -34.87550 -70.91332 20818 ft 229 kts 199°
2026-05-06 21:22 -34.89121 -70.91600 21013 ft 228 kts 199°
2026-05-06 21:22 -34.90707 -70.91874 21093 ft 232 kts 199°
2026-05-06 21:22 -34.92323 -70.92156 21129 ft 238 kts 199°
2026-05-06 21:23 -34.93981 -70.92444 21124 ft 243 kts 199°
2026-05-06 21:23 -34.95666 -70.92735 21130 ft 246 kts 199°
2026-05-06 21:23 -34.97371 -70.93023 21154 ft 249 kts 198°
2026-05-06 21:23 -34.99098 -70.93316 21144 ft 252 kts 198°
2026-05-06 21:24 -35.00848 -70.93617 21160 ft 255 kts 198°
2026-05-06 21:24 -35.02619 -70.93922 21144 ft 258 kts 198°
2026-05-06 21:24 -35.04404 -70.94227 21150 ft 260 kts 198°
2026-05-06 21:24 -35.06203 -70.94534 21170 ft 262 kts 198°
2026-05-06 21:25 -35.08008 -70.94856 21186 ft 264 kts 198°
2026-05-06 21:25 -35.09837 -70.95187 21238 ft 267 kts 198°
2026-05-06 21:25 -35.11685 -70.95515 21255 ft 270 kts 198°
2026-05-06 21:25 -35.13553 -70.95842 21249 ft 272 kts 198°
2026-05-06 21:26 -35.15434 -70.96169 21259 ft 274 kts 198°
2026-05-06 21:26 -35.17324 -70.96500 21232 ft 276 kts 198°
2026-05-06 21:26 -35.19226 -70.96824 21196 ft 275 kts 198°
2026-05-06 21:26 -35.21119 -70.97151 21151 ft 274 kts 198°
2026-05-06 21:27 -35.22979 -70.97473 21159 ft 273 kts 198°
2026-05-06 21:27 -35.24857 -70.97799 21156 ft 273 kts 198°
2026-05-06 21:27 -35.26730 -70.98123 21130 ft 270 kts 198°
2026-05-06 21:27 -35.28582 -70.98442 21132 ft 267 kts 198°
2026-05-06 21:28 -35.30419 -70.98755 21143 ft 267 kts 198°
2026-05-06 21:28 -35.32260 -70.99058 21146 ft 267 kts 198°
2026-05-06 21:28 -35.34097 -70.99376 21137 ft 266 kts 198°
2026-05-06 21:28 -35.35929 -70.99691 21144 ft 266 kts 198°
2026-05-06 21:29 -35.37758 -71.00009 21150 ft 265 kts 198°
2026-05-06 21:29 -35.39584 -71.00327 21150 ft 266 kts 198°
2026-05-06 21:29 -35.41421 -71.00646 21157 ft 266 kts 198°
2026-05-06 21:29 -35.43259 -71.00968 21154 ft 268 kts 198°
2026-05-06 21:30 -35.45105 -71.01289 21150 ft 268 kts 198°
2026-05-06 21:30 -35.46953 -71.01612 21135 ft 269 kts 198°
2026-05-06 21:30 -35.48800 -71.01934 21123 ft 268 kts 198°
2026-05-06 21:30 -35.50642 -71.02256 21143 ft 267 kts 198°
2026-05-06 21:31 -35.52479 -71.02574 21148 ft 267 kts 198°
2026-05-06 21:31 -35.54317 -71.02896 21137 ft 267 kts 198°
2026-05-06 21:31 -35.56153 -71.03218 21153 ft 267 kts 198°
2026-05-06 21:31 -35.57992 -71.03539 21136 ft 267 kts 198°
2026-05-06 21:32 -35.59830 -71.03862 21146 ft 267 kts 198°
2026-05-06 21:32 -35.63519 -71.04508 21149 ft 269 kts 198°
2026-05-06 21:32 -35.65374 -71.04832 21133 ft 269 kts 198°
2026-05-06 21:33 -35.67226 -71.05156 21136 ft 269 kts 198°
2026-05-06 21:33 -35.69076 -71.05477 21129 ft 268 kts 198°
2026-05-06 21:33 -35.70920 -71.05801 21146 ft 268 kts 198°
2026-05-06 21:33 -35.72765 -71.06126 21140 ft 268 kts 198°
2026-05-06 21:34 -35.74610 -71.06450 21155 ft 268 kts 198°
2026-05-06 21:34 -35.76462 -71.06773 21144 ft 269 kts 198°
2026-05-06 21:34 -35.78316 -71.07101 21139 ft 269 kts 198°
2026-05-06 21:34 -35.80163 -71.07427 21136 ft 269 kts 198°
2026-05-06 21:35 -35.82020 -71.07753 21139 ft 269 kts 198°
2026-05-06 21:35 -35.83875 -71.08079 21138 ft 270 kts 198°
2026-05-06 21:35 -35.85731 -71.08406 21086 ft 268 kts 198°
2026-05-06 21:35 -35.87563 -71.08727 21118 ft 264 kts 198°
2026-05-06 21:36 -35.89378 -71.09048 21148 ft 263 kts 198°
2026-05-06 21:36 -35.91195 -71.09372 21152 ft 265 kts 198°
2026-05-06 21:36 -35.93004 -71.09689 21128 ft 266 kts 198°
2026-05-06 21:36 -35.94838 -71.10009 21138 ft 267 kts 198°
2026-05-06 21:37 -35.96680 -71.10337 21151 ft 268 kts 198°
2026-05-06 21:37 -35.98552 -71.10665 21088 ft 267 kts 198°
2026-05-06 21:37 -36.00386 -71.10988 21094 ft 264 kts 198°
2026-05-06 21:37 -36.02194 -71.11314 21099 ft 261 kts 198°
2026-05-06 21:38 -36.03982 -71.11629 21148 ft 260 kts 198°
2026-05-06 21:38 -36.05785 -71.11953 21157 ft 264 kts 198°
2026-05-06 21:38 -36.07616 -71.12271 21125 ft 266 kts 198°
2026-05-06 21:38 -36.09418 -71.12590 21138 ft 265 kts 198°
2026-05-06 21:39 -36.11249 -71.12914 21137 ft 267 kts 198°
2026-05-06 21:39 -36.13086 -71.13239 21111 ft 266 kts 198°
2026-05-06 21:39 -36.14913 -71.13562 21110 ft 264 kts 198°
2026-05-06 21:39 -36.16728 -71.13883 21115 ft 263 kts 198°
2026-05-06 21:40 -36.18529 -71.14206 21139 ft 262 kts 198°
2026-05-06 21:40 -36.20340 -71.14525 21113 ft 263 kts 198°
2026-05-06 21:40 -36.22148 -71.14846 21116 ft 262 kts 198°
2026-05-06 21:40 -36.23950 -71.15167 21124 ft 262 kts 198°
2026-05-06 21:41 -36.25756 -71.15488 21128 ft 262 kts 198°
2026-05-06 21:41 -36.27563 -71.15810 21133 ft 263 kts 198°
2026-05-06 21:41 -36.29380 -71.16134 21115 ft 264 kts 198°
2026-05-06 21:41 -36.31197 -71.16457 21115 ft 264 kts 198°
2026-05-06 21:42 -36.33010 -71.16782 21116 ft 263 kts 198°
2026-05-06 21:42 -36.34820 -71.17104 21116 ft 263 kts 198°
2026-05-06 21:42 -36.36633 -71.17429 21090 ft 262 kts 198°
2026-05-06 21:42 -36.38430 -71.17749 21125 ft 261 kts 198°
2026-05-06 21:43 -36.40229 -71.18071 21105 ft 262 kts 198°
2026-05-06 21:43 -36.42032 -71.18393 21109 ft 261 kts 198°
2026-05-06 21:43 -36.43829 -71.18715 21106 ft 261 kts 198°
2026-05-06 21:43 -36.45628 -71.19037 21103 ft 261 kts 198°
2026-05-06 21:44 -36.47419 -71.19359 21113 ft 260 kts 198°
2026-05-06 21:44 -36.49213 -71.19682 21099 ft 261 kts 198°
2026-05-06 21:44 -36.51006 -71.20001 21093 ft 260 kts 198°
2026-05-06 21:44 -36.52795 -71.20323 21079 ft 259 kts 198°
2026-05-06 21:45 -36.54574 -71.20639 21092 ft 257 kts 198°
2026-05-06 21:45 -36.56345 -71.20955 21109 ft 257 kts 198°
2026-05-06 21:45 -36.58119 -71.21277 21105 ft 259 kts 197°
2026-05-06 21:45 -36.59909 -71.21598 21120 ft 261 kts 197°
2026-05-06 21:46 -36.61715 -71.21923 21082 ft 262 kts 197°
2026-05-06 21:46 -36.63519 -71.22247 21103 ft 262 kts 197°
2026-05-06 21:46 -36.65320 -71.22570 21084 ft 262 kts 197°
2026-05-06 21:46 -36.67129 -71.22897 21083 ft 263 kts 197°
2026-05-06 21:47 -36.68939 -71.23227 21077 ft 263 kts 197°
2026-05-06 21:47 -36.70757 -71.23549 21086 ft 265 kts 197°
2026-05-06 21:47 -36.72564 -71.23867 21061 ft 266 kts 197°
2026-05-06 21:47 -36.74386 -71.24208 21081 ft 265 kts 197°
2026-05-06 21:48 -36.76209 -71.24533 21081 ft 265 kts 197°
2026-05-06 21:48 -36.78036 -71.24863 21089 ft 266 kts 196°
2026-05-06 21:48 -36.79874 -71.25196 21078 ft 267 kts 197°
2026-05-06 21:48 -36.81715 -71.25528 21074 ft 267 kts 196°
2026-05-06 21:49 -36.83554 -71.25861 21061 ft 267 kts 196°
2026-05-06 21:49 -36.85387 -71.26192 21089 ft 266 kts 196°
2026-05-06 21:49 -36.87222 -71.26525 21083 ft 267 kts 196°
2026-05-06 21:49 -36.89064 -71.26859 21060 ft 268 kts 196°
2026-05-06 21:50 -36.90897 -71.27190 21046 ft 266 kts 196°
2026-05-06 21:50 -36.92723 -71.27522 21057 ft 264 kts 196°
2026-05-06 21:50 -36.94534 -71.27849 21105 ft 264 kts 196°
2026-05-06 21:50 -36.96357 -71.28179 21070 ft 265 kts 196°
2026-05-06 21:51 -36.98184 -71.28511 21063 ft 265 kts 196°
2026-05-06 21:51 -37.00014 -71.28841 21082 ft 266 kts 196°
2026-05-06 21:51 -37.01848 -71.29174 21064 ft 267 kts 196°
2026-05-06 21:51 -37.03691 -71.29509 21072 ft 268 kts 196°
2026-05-06 21:52 -37.05538 -71.29844 21071 ft 269 kts 196°
2026-05-06 21:52 -37.07391 -71.30182 21064 ft 270 kts 196°
2026-05-06 21:52 -37.09252 -71.30521 21062 ft 270 kts 196°
2026-05-06 21:52 -37.11112 -71.30861 21049 ft 270 kts 195°
2026-05-06 21:53 -37.12970 -71.31198 21052 ft 270 kts 195°
2026-05-06 21:53 -37.14829 -71.31539 21072 ft 270 kts 195°
2026-05-06 21:53 -37.16693 -71.31878 21054 ft 271 kts 195°
2026-05-06 21:53 -37.18551 -71.32221 21038 ft 269 kts 195°
2026-05-06 21:54 -37.20371 -71.32551 21055 ft 267 kts 195°
2026-05-06 21:54 -37.22228 -71.32888 21058 ft 266 kts 195°
2026-05-06 21:54 -37.24060 -71.33222 21074 ft 266 kts 195°
2026-05-06 21:54 -37.25894 -71.33560 21063 ft 266 kts 195°
2026-05-06 21:55 -37.27700 -71.33888 21053 ft 265 kts 195°
2026-05-06 21:55 -37.29523 -71.34221 21069 ft 265 kts 195°
2026-05-06 21:55 -37.31348 -71.34557 21070 ft 266 kts 195°
2026-05-06 21:55 -37.33180 -71.34893 21055 ft 266 kts 195°
2026-05-06 21:56 -37.35011 -71.35227 21057 ft 265 kts 195°
2026-05-06 21:56 -37.36835 -71.35560 21064 ft 265 kts 195°
2026-05-06 21:56 -37.38662 -71.35893 21071 ft 265 kts 195°
2026-05-06 21:56 -37.40494 -71.36230 21074 ft 267 kts 195°
2026-05-06 21:57 -37.42337 -71.36569 21071 ft 269 kts 195°
2026-05-06 21:57 -37.44195 -71.36909 21044 ft 269 kts 195°
2026-05-06 21:57 -37.46045 -71.37251 21046 ft 268 kts 195°
2026-05-06 21:57 -37.47886 -71.37589 21053 ft 267 kts 195°
2026-05-06 21:58 -37.49722 -71.37927 21054 ft 266 kts 195°
2026-05-06 21:58 -37.51556 -71.38264 21059 ft 265 kts 195°
2026-05-06 21:58 -37.53381 -71.38601 21076 ft 265 kts 195°
2026-05-06 21:58 -37.55213 -71.38938 21069 ft 266 kts 195°
2026-05-06 21:59 -37.56423 -71.39163 21074 ft 267 kts 195°
2026-05-06 21:59 -37.58888 -71.39616 21062 ft 268 kts 194°
2026-05-06 21:59 -37.60737 -71.39958 21069 ft 269 kts 194°
2026-05-06 21:59 -37.61970 -71.40183 21069 ft 270 kts 194°
2026-05-06 22:00 -37.63827 -71.40528 21052 ft 270 kts 194°
2026-05-06 22:00 -37.65680 -71.40866 21058 ft 269 kts 194°
2026-05-06 22:00 -37.67526 -71.41208 21074 ft 269 kts 194°
2026-05-06 22:00 -37.69381 -71.41551 21045 ft 269 kts 194°
2026-05-06 22:01 -37.71230 -71.41893 21057 ft 268 kts 194°
2026-05-06 22:01 -37.73075 -71.42236 21039 ft 267 kts 194°
2026-05-06 22:01 -37.74907 -71.42575 21068 ft 266 kts 194°
2026-05-06 22:01 -37.76742 -71.42915 21066 ft 266 kts 194°
2026-05-06 22:02 -37.78572 -71.43254 21067 ft 266 kts 194°
2026-05-06 22:02 -37.80405 -71.43595 21064 ft 267 kts 194°
2026-05-06 22:02 -37.82241 -71.43936 21062 ft 267 kts 194°
2026-05-06 22:02 -37.84077 -71.44277 21056 ft 267 kts 194°
2026-05-06 22:03 -37.85918 -71.44618 21059 ft 267 kts 194°
2026-05-06 22:03 -37.87753 -71.44959 21058 ft 266 kts 194°
2026-05-06 22:03 -37.89584 -71.45300 21070 ft 265 kts 195°
2026-05-06 22:03 -37.91401 -71.45696 21068 ft 265 kts 195°
2026-05-06 22:04 -37.93227 -71.46062 21072 ft 266 kts 194°
2026-05-06 22:04 -37.95064 -71.46396 21066 ft 267 kts 194°
2026-05-06 22:04 -37.96899 -71.46731 21057 ft 267 kts 194°
2026-05-06 22:04 -37.98736 -71.47061 21054 ft 266 kts 194°
2026-05-06 22:05 -38.00566 -71.47376 21063 ft 265 kts 193°
2026-05-06 22:05 -38.02393 -71.47690 21073 ft 265 kts 194°
2026-05-06 22:05 -38.04218 -71.48028 21072 ft 266 kts 194°
2026-05-06 22:05 -38.06025 -71.48364 21066 ft 266 kts 194°
2026-05-06 22:06 -38.07875 -71.48710 21058 ft 265 kts 194°
2026-05-06 22:06 -38.09701 -71.49052 21067 ft 265 kts 194°
2026-05-06 22:06 -38.11524 -71.49392 21055 ft 264 kts 194°
2026-05-06 22:06 -38.13341 -71.49733 21065 ft 264 kts 194°
2026-05-06 22:07 -38.15154 -71.50073 21067 ft 264 kts 194°
2026-05-06 22:07 -38.16946 -71.50409 21076 ft 264 kts 194°
2026-05-06 22:07 -38.18763 -71.50749 21075 ft 264 kts 194°
2026-05-06 22:07 -38.20586 -71.51090 21073 ft 265 kts 194°
2026-05-06 22:08 -38.22412 -71.51436 21063 ft 265 kts 194°
2026-05-06 22:08 -38.24239 -71.51777 21071 ft 265 kts 194°
2026-05-06 22:08 -38.26066 -71.52120 21063 ft 266 kts 194°
2026-05-06 22:08 -38.27894 -71.52462 21067 ft 265 kts 194°
2026-05-06 22:09 -38.29719 -71.52806 21071 ft 265 kts 194°
2026-05-06 22:09 -38.31537 -71.53148 21074 ft 265 kts 194°
2026-05-06 22:09 -38.33360 -71.53491 21068 ft 265 kts 194°
2026-05-06 22:09 -38.35178 -71.53833 21074 ft 265 kts 194°
2026-05-06 22:10 -38.37000 -71.54178 21084 ft 265 kts 194°
2026-05-06 22:10 -38.38832 -71.54524 21077 ft 266 kts 194°
2026-05-06 22:10 -38.40667 -71.54869 21077 ft 267 kts 194°
2026-05-06 22:10 -38.42505 -71.55215 21069 ft 267 kts 195°
2026-05-06 22:11 -38.44340 -71.55562 21083 ft 266 kts 194°
2026-05-06 22:11 -38.46174 -71.55909 21092 ft 267 kts 194°
2026-05-06 22:11 -38.48016 -71.56257 21075 ft 268 kts 194°
2026-05-06 22:11 -38.49239 -71.56485 21072 ft 268 kts 194°
2026-05-06 22:12 -38.49860 -71.56601 21071 ft 267 kts 194°
2026-05-06 22:12 -38.55371 -71.57650 21066 ft 267 kts 194°
2026-05-06 22:12 -38.57180 -71.57991 21076 ft 266 kts 195°
2026-05-06 22:13 -38.59004 -71.58338 21066 ft 264 kts 194°
2026-05-06 22:13 -38.60822 -71.58681 21083 ft 263 kts 195°
2026-05-06 22:13 -38.62630 -71.59025 21102 ft 264 kts 195°
2026-05-06 22:13 -38.64450 -71.59371 21097 ft 265 kts 194°
2026-05-06 22:14 -38.66279 -71.59720 21090 ft 266 kts 194°
2026-05-06 22:14 -38.68117 -71.60068 21090 ft 267 kts 194°
2026-05-06 22:14 -38.69952 -71.60417 21065 ft 267 kts 194°
2026-05-06 22:14 -38.71788 -71.60768 21091 ft 267 kts 194°
2026-05-06 22:15 -38.73624 -71.61116 21088 ft 267 kts 194°
2026-05-06 22:15 -38.75462 -71.61468 21092 ft 268 kts 194°
2026-05-06 22:15 -38.77302 -71.61817 21074 ft 267 kts 194°
2026-05-06 22:15 -38.79141 -71.62167 21091 ft 267 kts 195°
2026-05-06 22:16 -38.80977 -71.62520 21090 ft 267 kts 194°
2026-05-06 22:16 -38.82818 -71.62870 21077 ft 267 kts 194°
2026-05-06 22:16 -38.84657 -71.63219 21075 ft 266 kts 194°
2026-05-06 22:16 -38.86486 -71.63572 21082 ft 266 kts 194°
2026-05-06 22:17 -38.88310 -71.63920 21054 ft 264 kts 194°
2026-05-06 22:17 -38.90113 -71.64262 21090 ft 261 kts 194°
2026-05-06 22:17 -38.91919 -71.64609 21079 ft 263 kts 195°
2026-05-06 22:17 -38.93727 -71.64956 21084 ft 263 kts 195°
2026-05-06 22:18 -38.95535 -71.65302 21086 ft 263 kts 194°
2026-05-06 22:18 -38.97347 -71.65651 21085 ft 264 kts 194°
2026-05-06 22:18 -38.99165 -71.65996 21082 ft 264 kts 195°
2026-05-06 22:18 -39.00977 -71.66347 21093 ft 264 kts 194°
2026-05-06 22:19 -39.02796 -71.66696 21081 ft 265 kts 195°
2026-05-06 22:19 -39.04615 -71.67044 21083 ft 264 kts 195°
2026-05-06 22:19 -39.06431 -71.67395 21081 ft 264 kts 195°
2026-05-06 22:19 -39.08246 -71.67742 21083 ft 264 kts 194°
2026-05-06 22:20 -39.10060 -71.68092 21074 ft 263 kts 195°
2026-05-06 22:20 -39.11848 -71.68434 21080 ft 263 kts 195°
2026-05-06 22:20 -39.13659 -71.68783 21087 ft 264 kts 195°
2026-05-06 22:20 -39.15475 -71.69134 21073 ft 264 kts 195°
2026-05-06 22:21 -39.17313 -71.69491 21075 ft 264 kts 194°
2026-05-06 22:21 -39.19101 -71.69832 21075 ft 263 kts 195°
2026-05-06 22:21 -39.20907 -71.70181 21075 ft 262 kts 195°
2026-05-06 22:21 -39.22713 -71.70534 21080 ft 263 kts 195°
2026-05-06 22:22 -39.24525 -71.70879 21076 ft 263 kts 195°
2026-05-06 22:22 -39.26337 -71.71230 21075 ft 264 kts 195°
2026-05-06 22:22 -39.28148 -71.71581 21065 ft 263 kts 195°
2026-05-06 22:22 -39.29960 -71.71933 21069 ft 263 kts 195°
2026-05-06 22:23 -39.31774 -71.72282 21076 ft 263 kts 195°
2026-05-06 22:23 -39.33587 -71.72634 21070 ft 264 kts 195°
2026-05-06 22:23 -39.35403 -71.72985 21068 ft 264 kts 195°
2026-05-06 22:23 -39.37214 -71.73336 21067 ft 264 kts 195°
2026-05-06 22:24 -39.39029 -71.73692 21061 ft 263 kts 195°
2026-05-06 22:24 -39.40839 -71.74043 21077 ft 263 kts 194°
2026-05-06 22:24 -39.42651 -71.74394 21072 ft 264 kts 194°
2026-05-06 22:24 -39.44472 -71.74749 21064 ft 265 kts 194°
2026-05-06 22:25 -39.46292 -71.75102 21063 ft 265 kts 194°
2026-05-06 22:25 -39.48111 -71.75456 21064 ft 265 kts 194°
2026-05-06 22:25 -39.49935 -71.75811 21066 ft 265 kts 194°
2026-05-06 22:25 -39.51767 -71.76168 21067 ft 266 kts 194°
2026-05-06 22:26 -39.53596 -71.76526 21068 ft 266 kts 194°
2026-05-06 22:26 -39.55432 -71.76885 21059 ft 267 kts 194°
2026-05-06 22:26 -39.57271 -71.77242 21060 ft 268 kts 194°
2026-05-06 22:26 -39.59112 -71.77601 21054 ft 268 kts 194°
2026-05-06 22:27 -39.60951 -71.77961 21056 ft 268 kts 194°
2026-05-06 22:27 -39.62800 -71.78322 21046 ft 268 kts 194°
2026-05-06 22:27 -39.64635 -71.78678 21039 ft 266 kts 195°
2026-05-06 22:27 -39.66466 -71.79038 21041 ft 265 kts 195°
2026-05-06 22:28 -39.68285 -71.79395 21060 ft 264 kts 194°
2026-05-06 22:28 -39.70105 -71.79751 21048 ft 264 kts 195°
2026-05-06 22:28 -39.71922 -71.80107 21059 ft 264 kts 195°
2026-05-06 22:28 -39.73738 -71.80464 21066 ft 265 kts 195°
2026-05-06 22:29 -39.75565 -71.80824 21062 ft 266 kts 195°
2026-05-06 22:29 -39.77402 -71.81185 21053 ft 267 kts 195°
2026-05-06 22:29 -39.79239 -71.81545 21045 ft 267 kts 195°
2026-05-06 22:29 -39.81082 -71.81906 21060 ft 268 kts 195°
2026-05-06 22:30 -39.82931 -71.82272 21060 ft 269 kts 194°
2026-05-06 22:30 -39.84787 -71.82636 21049 ft 270 kts 195°
2026-05-06 22:30 -39.86648 -71.83001 21050 ft 271 kts 195°
2026-05-06 22:30 -39.88514 -71.83370 21049 ft 271 kts 195°
2026-05-06 22:31 -39.90382 -71.83739 21028 ft 271 kts 195°
2026-05-06 22:31 -39.92246 -71.84105 21048 ft 270 kts 195°
2026-05-06 22:31 -39.94105 -71.84470 21043 ft 270 kts 195°
2026-05-06 22:31 -39.95961 -71.84838 21053 ft 270 kts 195°
2026-05-06 22:32 -39.97798 -71.85202 21055 ft 271 kts 195°
2026-05-06 22:32 -39.99662 -71.85569 21056 ft 271 kts 195°
2026-05-06 22:32 -40.01530 -71.85938 21052 ft 272 kts 195°
2026-05-06 22:32 -40.03399 -71.86307 21049 ft 272 kts 195°
2026-05-06 22:33 -40.05269 -71.86677 21052 ft 272 kts 195°
2026-05-06 22:33 -40.07142 -71.87047 21054 ft 272 kts 195°
2026-05-06 22:33 -40.09019 -71.87419 21054 ft 273 kts 195°
2026-05-06 22:33 -40.10899 -71.87791 21047 ft 273 kts 195°
2026-05-06 22:34 -40.12777 -71.88164 21051 ft 273 kts 195°
2026-05-06 22:34 -40.14658 -71.88536 21044 ft 274 kts 195°
2026-05-06 22:34 -40.16538 -71.88908 21045 ft 273 kts 195°
2026-05-06 22:34 -40.18411 -71.89284 21049 ft 272 kts 195°
2026-05-06 22:35 -40.20288 -71.89656 21032 ft 272 kts 195°
2026-05-06 22:35 -40.22154 -71.90027 21048 ft 270 kts 195°
2026-05-06 22:35 -40.24012 -71.90396 21049 ft 271 kts 195°
2026-05-06 22:35 -40.25876 -71.90768 21054 ft 271 kts 195°
2026-05-06 22:36 -40.27746 -71.91139 21044 ft 271 kts 195°
2026-05-06 22:36 -40.29606 -71.91511 21044 ft 271 kts 195°
2026-05-06 22:36 -40.31465 -71.91881 21047 ft 270 kts 195°
2026-05-06 22:36 -40.33327 -71.92254 21057 ft 271 kts 195°
2026-05-06 22:37 -40.35197 -71.92628 21046 ft 272 kts 195°
2026-05-06 22:37 -40.37068 -71.93002 21057 ft 273 kts 195°
2026-05-06 22:37 -40.38951 -71.93377 21037 ft 273 kts 195°
2026-05-06 22:37 -40.40828 -71.93755 21043 ft 273 kts 195°
2026-05-06 22:38 -40.42703 -71.94128 21047 ft 273 kts 195°
2026-05-06 22:38 -40.44579 -71.94505 21061 ft 273 kts 195°
2026-05-06 22:38 -40.46464 -71.94882 21049 ft 274 kts 195°
2026-05-06 22:38 -40.48350 -71.95264 21048 ft 275 kts 195°
2026-05-06 22:39 -40.50245 -71.95644 21050 ft 276 kts 195°
2026-05-06 22:39 -40.52143 -71.96024 21034 ft 276 kts 195°
2026-05-06 22:39 -40.54041 -71.96405 21046 ft 276 kts 195°
2026-05-06 22:39 -40.55942 -71.96788 21035 ft 276 kts 195°
2026-05-06 22:40 -40.57836 -71.97170 21039 ft 276 kts 195°
2026-05-06 22:40 -40.59736 -71.97550 21038 ft 275 kts 195°
2026-05-06 22:40 -40.61628 -71.97932 21041 ft 275 kts 195°
2026-05-06 22:40 -40.63523 -71.98316 21037 ft 276 kts 195°
2026-05-06 22:41 -40.67327 -71.99083 21042 ft 277 kts 195°
2026-05-06 22:41 -40.69231 -71.99468 21035 ft 277 kts 195°
2026-05-06 22:41 -40.71141 -71.99852 21043 ft 277 kts 195°
2026-05-06 22:42 -40.73049 -72.00238 21043 ft 278 kts 195°
2026-05-06 22:42 -40.74962 -72.00624 21039 ft 278 kts 195°
2026-05-06 22:42 -40.76878 -72.01012 21044 ft 279 kts 195°
2026-05-06 22:42 -40.78798 -72.01401 21035 ft 279 kts 195°
2026-05-06 22:43 -40.80716 -72.01788 21033 ft 279 kts 195°
2026-05-06 22:43 -40.82632 -72.02178 21037 ft 279 kts 195°
2026-05-06 22:43 -40.84529 -72.02562 21043 ft 280 kts 196°
2026-05-06 22:43 -40.86479 -72.02956 21034 ft 280 kts 195°
2026-05-06 22:44 -40.88377 -72.03341 21040 ft 280 kts 195°
2026-05-06 22:44 -40.90325 -72.03736 21035 ft 280 kts 196°
2026-05-06 22:44 -40.92222 -72.04124 21031 ft 279 kts 195°
2026-05-06 22:44 -40.94139 -72.04515 21029 ft 279 kts 195°
2026-05-06 22:45 -40.96055 -72.04904 21028 ft 278 kts 195°
2026-05-06 22:45 -40.97965 -72.05292 21032 ft 277 kts 196°
2026-05-06 22:45 -40.99873 -72.05682 21013 ft 277 kts 196°
2026-05-06 22:45 -41.01776 -72.06071 21039 ft 277 kts 196°
2026-05-06 22:46 -41.03684 -72.06464 20982 ft 277 kts 197°
2026-05-06 22:46 -41.05586 -72.06866 21008 ft 276 kts 197°
2026-05-06 22:46 -41.07483 -72.07247 21026 ft 276 kts 196°
2026-05-06 22:46 -41.09386 -72.07635 20977 ft 276 kts 196°
2026-05-06 22:47 -41.11279 -72.08015 20974 ft 275 kts 197°
2026-05-06 22:47 -41.13170 -72.08397 21004 ft 274 kts 197°
2026-05-06 22:47 -41.14418 -72.08653 21020 ft 275 kts 197°
2026-05-06 22:47 -41.16309 -72.09040 21038 ft 276 kts 197°
2026-05-06 22:48 -41.18215 -72.09431 21049 ft 279 kts 197°
2026-05-06 22:48 -41.20144 -72.09825 21038 ft 281 kts 197°
2026-05-06 22:48 -41.22080 -72.10219 21020 ft 282 kts 197°
2026-05-06 22:48 -41.24018 -72.10618 21035 ft 282 kts 197°
2026-05-06 22:49 -41.25963 -72.11002 21033 ft 284 kts 193°
2026-05-06 22:49 -41.27954 -72.10633 20989 ft 298 kts 161°
2026-05-06 22:49 -41.29637 -72.09016 21016 ft 303 kts 131°
2026-05-06 22:49 -41.30612 -72.06553 21027 ft 302 kts 101°
2026-05-06 22:50 -41.30675 -72.03842 20993 ft 289 kts 70°
2026-05-06 22:50 -41.29842 -72.01531 21043 ft 271 kts 43°
2026-05-06 22:50 -41.28828 -71.99438 20967 ft 277 kts 62°
2026-05-06 22:50 -41.28178 -71.97014 20983 ft 279 kts 63°
2026-05-06 22:51 -41.27494 -71.94596 20993 ft 278 kts 60°
2026-05-06 22:51 -41.26723 -71.92241 21021 ft 279 kts 57°
2026-05-06 22:51 -41.25884 -71.89898 21000 ft 282 kts 56°
2026-05-06 22:51 -41.25035 -71.87555 20991 ft 282 kts 56°
2026-05-06 22:52 -41.24177 -71.85210 20991 ft 282 kts 57°
2026-05-06 22:52 -41.23582 -71.82693 20984 ft 290 kts 72°
2026-05-06 22:52 -41.23341 -71.80029 20984 ft 295 kts 86°
2026-05-06 22:52 -41.23498 -71.77293 20991 ft 299 kts 92°
2026-05-06 22:53 -41.23717 -71.74543 20986 ft 300 kts 91°
2026-05-06 22:53 -41.23886 -71.71787 20981 ft 299 kts 89°
2026-05-06 22:53 -41.23975 -71.69025 20969 ft 299 kts 86°
2026-05-06 22:53 -41.24032 -71.66283 21047 ft 295 kts 86°
2026-05-06 22:54 -41.24081 -71.63561 21098 ft 294 kts 86°
2026-05-06 22:54 -41.24147 -71.60833 21105 ft 296 kts 87°
2026-05-06 22:54 -41.24228 -71.58093 21109 ft 298 kts 87°
2026-05-06 22:54 -41.24303 -71.55339 21094 ft 299 kts 87°
2026-05-06 22:55 -41.24382 -71.52541 20811 ft 310 kts 88°
2026-05-06 22:55 -41.24468 -71.49621 20406 ft 322 kts 88°
2026-05-06 22:55 -41.24555 -71.46606 19982 ft 332 kts 88°
2026-05-06 22:55 -41.24654 -71.43613 19510 ft 315 kts 89°
2026-05-06 22:56 -41.24755 -71.40785 19032 ft 299 kts 88°
2026-05-06 22:56 -41.24845 -71.38087 18529 ft 286 kts 88°
2026-05-06 22:56 -41.24909 -71.35485 17984 ft 278 kts 87°
2026-05-06 22:56 -41.24963 -71.32932 17381 ft 274 kts 87°
2026-05-06 22:57 -41.25007 -71.30415 16816 ft 271 kts 88°
2026-05-06 22:57 -41.25062 -71.27918 16239 ft 270 kts 88°
2026-05-06 22:57 -41.25131 -71.25439 15676 ft 268 kts 89°
2026-05-06 22:57 -41.25195 -71.22979 15114 ft 264 kts 89°
2026-05-06 22:58 -41.25262 -71.20552 14585 ft 261 kts 89°
2026-05-06 22:58 -41.25325 -71.18151 14056 ft 259 kts 90°
2026-05-06 22:58 -41.25389 -71.15764 13545 ft 258 kts 90°
2026-05-06 22:58 -41.25449 -71.13391 12942 ft 256 kts 90°
2026-05-06 22:59 -41.25511 -71.11065 12386 ft 254 kts 90°
2026-05-06 22:59 -41.25567 -71.08699 11808 ft 252 kts 90°
2026-05-06 22:59 -41.25621 -71.06414 11268 ft 249 kts 89°
2026-05-06 22:59 -41.25676 -71.04098 10717 ft 245 kts 89°
2026-05-06 23:00 -41.25730 -71.01856 10185 ft 242 kts 89°
2026-05-06 23:00 -41.25785 -70.99638 9646 ft 238 kts 90°
2026-05-06 23:00 -41.25837 -70.97455 9069 ft 235 kts 89°
2026-05-06 23:00 -41.25886 -70.95336 8503 ft 231 kts 89°
2026-05-06 23:01 -41.25935 -70.93195 7935 ft 227 kts 89°
2026-05-06 23:01 -41.25984 -70.91176 7590 ft 214 kts 90°
2026-05-06 23:01 -41.26050 -70.89278 7435 ft 197 kts 90°
2026-05-06 23:01 -41.26104 -70.87469 7376 ft 192 kts 87°
2026-05-06 23:02 -41.25702 -70.85903 7308 ft 174 kts 43°
2026-05-06 23:02 -41.24689 -70.85330 7301 ft 154 kts 352°
2026-05-06 23:02 -41.23862 -70.86049 7284 ft 147 kts 297°
2026-05-06 23:02 -41.23587 -70.87352 7312 ft 148 kts 287°
2026-05-06 23:03 -41.23333 -70.88732 7102 ft 163 kts 286°
2026-05-06 23:03 -41.23054 -70.90274 6778 ft 179 kts 286°
2026-05-06 23:03 -41.22752 -70.91912 6493 ft 183 kts 287°
2026-05-06 23:03 -41.22424 -70.93527 6245 ft 179 kts 288°
2026-05-06 23:04 -41.22064 -70.95084 5997 ft 172 kts 290°
2026-05-06 23:04 -41.21707 -70.96554 5768 ft 165 kts 290°
2026-05-06 23:04 -41.21326 -70.97948 5559 ft 156 kts 295°
2026-05-06 23:04 -41.20878 -70.99221 5346 ft 150 kts 297°
2026-05-06 23:05 -41.20434 -71.00449 5151 ft 146 kts 297°
2026-05-06 23:05 -41.19998 -71.01660 4962 ft 148 kts 296°
2026-05-06 23:05 -41.19572 -71.02941 4748 ft 153 kts 295°
2026-05-06 23:05 -41.19132 -71.04239 4531 ft 155 kts 296°
2026-05-06 23:06 -41.18665 -71.05540 4296 ft 157 kts 296°
2026-05-06 23:06 -41.18198 -71.06861 4061 ft 159 kts 294°
2026-05-06 23:06 -41.17745 -71.08187 3866 ft 155 kts 294°
2026-05-06 23:06 -41.17312 -71.09451 3650 ft 147 kts 294°
2026-05-06 23:07 -41.16899 -71.10661 3449 ft 142 kts 294°
2026-05-06 23:07 -41.16482 -71.11822 3243 ft 137 kts 295°
2026-05-06 23:07 -41.16092 -71.12941 3044 ft 131 kts 291°
2026-05-06 23:07 -41.15724 -71.14022 2857 ft 126 kts 293°
2026-05-06 23:08 -41.15351 -71.15071 2751 ft 121 kts 291°
2026-05-06 23:08 -41.15101 -71.15814 2748 ft 65 kts 298°
2026-05-06 23:08 -41.14953 -71.16218 2750 ft 20 kts 298°
2026-05-06 23:08 -41.14902 -71.16326 2752 ft 8 kts 338°
2026-05-06 23:09 -41.14844 -71.16314 2748 ft 6 kts 27°
2026-05-06 23:09 -41.14843 -71.16313 2748 ft 0 kts 27°
2026-05-06 23:11 -41.14829 -71.16303 2750 ft 4 kts 27°
2026-05-06 23:11 -41.14791 -71.16278 2746 ft 7 kts 21°
2026-05-06 23:12 -41.14742 -71.16282 2746 ft 6 kts
2026-05-06 23:12 -41.14725 -71.16277 2746 ft 1 kts
2026-05-06 23:12 -41.14721 -71.16279 2746 ft 0 kts 344°
2026-05-06 23:12 -41.14720 -71.16280 2746 ft 1 kts 335°
2026-05-06 23:13 -41.14719 -71.16281 2746 ft 1 kts 329°
2026-05-06 23:13 -41.14715 -71.16284 2746 ft 1 kts 327°
2026-05-06 23:13 -41.14713 -71.16286 2746 ft 0 kts 327°